Temp
6 7 5 2 1 2 3 5 6 9 8 10 10 7 6 3 2 1 -1 -2 -2 -4 -5 -5 -4 -5 -6 -6 -7 -8 -8 -8 -8 -8 -8 -8 -8 -8 -8 -8 -8 -7 -6 -6
5 5 6 6 6 2 3 4 4 6 7 9 9 9 7 7 3 3 2 1 -1 -2 -4 -6 -6 -5 -6 -7 -8 -9 -8 -8 -9 -9 -9 -9 -9 -9 -8 -8 -8 -8 -7 -7
5 3 3 3 4 5 6 4 4 3 5 7 6 6 5 2 3 3 2 1 -1 -2 -3 -5 -6 -6 -7 -7 -8 -9 -9 -9 -9 -9 -10 -9 -10 -9 -9 -9 -9 -8 -8 -7
4 2 4 7 1 5 5 6 5 4 5 6 6 5 3 -0 1 1 1 1 -1 -2 -3 -4 -5 -6 -7 -8 -9 -9 -10 -10 -10 -10 -10 -10 -10 -10 -9 -10 -10 -9 -9 -8
5 4 6 7 3 2 2 5 4 5 6 6 5 1 4 1 -0 1 -1 -3 -2 -2 -5 -6 -7 -8 -9 -10 -10 -11 -10 -10 -11 -11 -11 -11 -11 -11 -10 -10 -10 -10 -9 -8
5 5 5 8 1 -4 0 3 2 4 5 5 5 2 4 -4 -5 -6 -5 -4 -7 -6 -7 -8 -9 -9 -10 -11 -11 -11 -11 -11 -11 -11 -11 -11 -11 -11 -11 -11 -11 -10 -9 -9
5 6 5 4 -3 -4 2 8 2 4 5 5 4 4 -5 -7 -6 -7 -8 -9 -8 -8 -9 -9 -10 -11 -11 -11 -11 -11 -12 -12 -12 -12 -12 -12 -12 -11 -11 -11 -11 -11 -9 -9
5 5 5 -1 -1 3 7 -0 -1 -2 -0 2 0 -7 -8 -6 -7 -8 -9 -9 -10 -10 -10 -11 -11 -11 -12 -12 -11 -12 -12 -13 -12 -12 -12 -12 -12 -12 -11 -12 -11 -10 -9 -8
5 5 3 -0 6 4 -3 1 -1 -3 -5 -3 -6 -6 -7 -7 -8 -8 -9 -10 -10 -10 -11 -12 -12 -12 -12 -12 -12 -13 -13 -14 -13 -13 -13 -12 -12 -12 -12 -11 -11 -10 -9 -9
8 8 7 0 0 -2 -3 -3 -4 -4 -6 -5 -7 -7 -8 -7 -8 -9 -9 -10 -10 -10 -11 -12 -12 -12 -13 -13 -14 -14 -14 -14 -14 -14 -13 -12 -12 -12 -12 -12 -11 -10 -10 -9
5 5 3 5 0 -1 -4 -5 -6 -6 -7 -7 -7 -8 -8 -9 -9 -10 -10 -11 -11 -12 -12 -12 -12 -13 -14 -14 -15 -15 -15 -15 -14 -14 -14 -13 -13 -13 -12 -11 -10 -10 -9 -8
6 2 2 -2 -6 -5 -5 -6 -7 -8 -9 -8 -8 -9 -9 -10 -11 -12 -12 -12 -13 -14 -14 -15 -15 -15 -15 -15 -15 -16 -16 -15 -15 -14 -14 -14 -14 -13 -12 -11 -10 -8 -8 -8
-0 -7 -8 -8 -8 -7 -7 -8 -8 -9 -9 -10 -10 -10 -11 -12 -13 -12 -14 -15 -15 -16 -16 -17 -16 -16 -15 -16 -16 -16 -16 -16 -16 -15 -15 -15 -14 -13 -13 -12 -10 -10 -10 -9
-10 -10 -10 -10 -10 -11 -12 -12 -11 -13 -14 -14 -14 -14 -14 -14 -14 -15 -17 -18 -17 -17 -17 -17 -17 -16 -15 -16 -16 -16 -16 -16 -15 -15 -15 -14 -14 -14 -13 -12 -12 -12 -12 -11
-14 -14 -13 -13 -13 -13 -13 -13 -14 -15 -16 -18 -18 -18 -18 -19 -20 -20 -19 -19 -19 -18 -18 -18 -18 -17 -16 -16 -17 -17 -17 -17 -16 -15 -15 -14 -13 -12 -12 -13 -13 -13 -13 -12
-15 -14 -14 -14 -14 -13 -14 -14 -16 -17 -18 -19 -20 -21 -22 -21 -21 -20 -20 -20 -20 -20 -19 -19 -19 -17 -17 -17 -17 -17 -16 -16 -14 -13 -13 -13 -13 -13 -13 -13 -13 -13 -13 -13
-15 -15 -14 -15 -15 -16 -17 -17 -18 -19 -20 -21 -23 -22 -22 -22 -21 -21 -21 -21 -21 -20 -19 -20 -18 -17 -17 -17 -17 -17 -16 -16 -15 -13 -14 -14 -13 -13 -14 -14 -14 -14 -13 -13
-17 -16 -15 -15 -17 -19 -20 -20 -21 -21 -23 -23 -23 -23 -23 -23 -25 -22 -21 -21 -21 -20 -19 -18 -18 -17 -16 -16 -16 -15 -15 -16 -15 -15 -14 -14 -14 -14 -14 -14 -14 -15 -14 -13
-18 -18 -19 -19 -19 -20 -21 -22 -23 -23 -23 -23 -23 -23 -23 -23 -22 -22 -22 -22 -21 -21 -18 -17 -17 -15 -16 -15 -14 -14 -15 -14 -14 -14 -14 -14 -14 -15 -16 -15 -15 -15 -14 -14
-21 -21 -22 -22 -21 -22 -24 -23 -23 -23 -24 -23 -24 -24 -23 -22 -22 -22 -21 -21 -19 -18 -18 -17 -17 -16 -15 -15 -15 -15 -15 -14 -15 -15 -16 -16 -15 -15 -16 -16 -15 -15 -15 -15
-22 -22 -23 -23 -24 -23 -23 -23 -23 -24 -24 -24 -24 -24 -24 -22 -21 -21 -21 -19 -19 -18 -17 -16 -16 -16 -16 -16 -15 -15 -15 -16 -16 -17 -17 -17 -17 -17 -17 -17 -17 -16 -16 -16
-24 -25 -24 -23 -23 -24 -24 -23 -24 -24 -24 -24 -24 -24 -23 -22 -20 -20 -19 -19 -19 -18 -17 -17 -17 -17 -15 -14 -15 -17 -17 -17 -17 -17 -18 -18 -17 -17 -17 -17 -17 -17 -17 -16
-23 -23 -24 -24 -24 -23 -24 -24 -23 -24 -23 -23 -23 -23 -23 -22 -21 -21 -22 -19 -19 -19 -17 -18 -17 -16 -15 -15 -17 -17 -18 -18 -19 -19 -18 -18 -18 -18 -17 -17 -17 -16 -16 -15
-23 -23 -23 -24 -24 -25 -28 -22 -22 -23 -23 -23 -22 -22 -22 -22 -21 -20 -20 -19 -19 -19 -18 -19 -18 -16 -15 -18 -18 -19 -19 -19 -19 -19 -18 -17 -17 -18 -18 -17 -16 -17 -17 -16
-23 -23 -24 -25 -27 -26 -23 -22 -22 -23 -23 -22 -22 -21 -21 -21 -22 -20 -20 -20 -20 -19 -19 -19 -19 -18 -19 -19 -19 -19 -19 -19 -18 -18 -17 -17 -17 -18 -18 -18 -18 -17 -16 -16
-23 -23 -23 -23 -23 -22 -21 -21 -22 -21 -21 -21 -20 -20 -20 -20 -20 -20 -20 -20 -20 -20 -20 -21 -21 -20 -19 -19 -19 -19 -19 -19 -19 -19 -18 -18 -18 -18 -18 -18 -17 -17 -16 -16
-23 -21 -22 -22 -22 -22 -22 -21 -22 -21 -20 -20 -20 -20 -20 -20 -20 -19 -20 -20 -21 -21 -21 -21 -21 -20 -20 -19 -19 -20 -20 -19 -19 -18 -17 -17 -18 -18 -18 -18 -17 -17 -16 -16
Height
799 797 809 824 828 830 828 810 806 755 781 742 749 765 766 769 771 776 780 781 782 785 788 792 796 799 803 806 808 810 812 813 814 815 815 814 812 809 805 802 800 797 792 791
801 798 797 798 786 813 807 801 800 779 765 744 740 748 755 752 761 764 764 766 770 774 778 782 786 790 796 799 802 805 806 808 810 810 810 809 807 804 801 797 795 791 789 786
796 803 807 807 778 773 769 777 777 790 750 736 752 749 748 753 753 752 753 756 760 764 767 771 777 782 789 793 797 799 800 802 804 804 804 803 801 798 796 793 790 786 782 778
796 811 798 741 760 749 752 746 756 757 745 736 735 736 741 745 746 746 746 748 751 755 761 766 772 779 785 789 793 795 797 797 797 798 797 796 796 794 791 788 784 780 776 773
781 777 757 740 750 759 761 738 734 740 730 726 729 747 730 734 734 734 737 738 742 746 754 762 769 777 783 786 790 792 792 792 792 793 791 791 789 789 786 782 778 773 770 766
769 762 754 719 741 751 749 747 721 721 717 718 722 750 725 732 728 733 735 738 742 747 753 761 769 775 781 785 788 789 788 787 786 787 785 784 784 782 780 776 772 769 764 760
744 736 730 722 746 752 760 692 705 705 704 706 719 714 728 728 730 734 739 742 747 750 752 759 766 771 777 781 784 786 786 784 783 782 781 779 776 776 774 771 767 763 759 754
737 732 722 728 744 729 686 705 708 709 707 704 707 724 729 730 733 739 742 744 749 754 759 761 765 768 774 777 779 780 782 781 779 777 774 772 771 770 769 766 762 759 753 749
709 698 696 704 687 690 701 695 702 707 709 711 715 721 727 729 734 737 743 746 750 754 759 762 765 768 771 773 774 775 776 776 774 772 770 769 767 765 763 762 758 754 750 744
676 675 680 695 696 700 705 708 706 709 710 713 714 718 723 728 733 736 743 746 750 756 759 761 763 765 767 770 772 772 771 769 767 766 763 761 764 762 759 757 753 750 746 740
676 677 682 676 688 693 701 707 711 712 718 717 718 722 726 730 732 736 743 746 750 755 759 762 764 766 767 768 768 768 767 765 763 761 757 756 758 756 753 750 749 744 739 734
663 679 682 693 702 701 703 706 710 715 720 720 722 725 728 732 735 740 746 749 752 755 757 759 762 763 764 765 764 764 763 761 758 755 753 753 752 748 746 743 740 737 733 728
681 698 701 705 705 704 705 709 713 716 718 723 727 729 732 735 741 745 749 750 754 755 757 760 761 761 760 762 761 758 757 755 753 751 748 748 746 743 738 731 732 729 726 720
700 704 706 707 708 711 714 715 718 722 726 729 733 731 734 737 744 748 750 752 754 754 753 755 756 756 755 757 756 753 750 749 748 745 743 742 740 736 733 728 722 716 714 712
712 710 710 711 713 717 719 722 726 730 736 736 737 739 742 744 749 751 751 752 753 753 753 754 753 750 750 751 750 747 744 743 741 738 736 735 731 728 726 723 719 712 705 699
713 713 712 714 718 721 723 726 728 734 737 739 742 745 746 749 751 751 751 751 750 749 750 752 748 745 746 745 743 741 738 737 735 732 730 727 725 721 718 716 712 706 700 694
716 717 718 720 722 725 728 729 732 737 740 742 745 746 747 749 749 749 751 750 747 748 748 746 742 741 740 738 737 735 733 731 729 725 723 720 717 715 712 709 704 698 692 687
716 715 717 720 724 728 731 733 736 739 741 744 746 747 747 748 749 749 748 747 747 745 743 740 738 736 734 733 731 729 727 724 722 719 716 713 711 708 705 701 696 690 683 678
721 722 724 726 727 729 733 736 738 740 742 744 745 746 747 748 748 747 746 745 743 741 738 737 735 733 730 728 726 723 721 718 715 713 710 708 705 701 697 693 687 682 676 670
728 728 729 730 731 733 735 737 739 740 742 744 745 746 746 746 746 745 744 743 740 738 736 733 731 729 727 724 721 718 715 712 710 707 705 702 698 693 689 684 679 673 668 662
730 731 733 733 735 736 736 737 739 741 742 743 744 745 745 744 743 743 743 741 739 737 733 730 729 726 723 718 714 711 710 708 705 701 698 694 689 685 680 674 670 665 659 654
732 733 734 734 735 736 738 739 740 741 742 743 743 743 743 742 741 741 740 739 736 734 732 729 726 724 718 713 709 708 705 702 699 694 690 685 681 676 670 665 660 655 650 645
731 732 733 734 736 737 737 738 739 740 741 741 741 741 741 741 740 740 738 736 734 732 728 726 723 719 713 709 705 702 699 695 691 687 682 677 671 667 661 655 650 645 639 634
730 731 733 734 735 736 737 736 737 738 738 738 738 738 738 738 737 737 736 734 732 730 726 723 720 714 709 705 702 699 694 689 684 679 673 668 661 656 650 644 638 633 628 622
728 730 731 732 733 734 734 734 735 735 735 735 735 735 735 735 735 733 732 731 729 726 723 720 716 712 708 704 700 694 688 683 677 671 664 657 651 645 638 632 626 620 615 610
726 726 727 728 728 729 730 731 731 731 731 732 732 732 732 731 731 731 729 727 725 722 718 715 711 708 704 699 694 688 682 675 668 661 654 646 639 632 626 619 612 606 601 596
722 723 724 725 725 725 726 726 727 727 728 728 729 729 729 729 729 727 725 723 721 718 714 711 708 704 700 694 688 682 675 667 660 652 643 635 626 619 612 605 598 592 588 582
Wind_Speed
15 10 5 7 6 17 19 27 14 30 20 32 20 11 9 9 12 7 10 11 13 13 14 21 25 23 21 19 17 14 12 11 11 12 13 15 17 20 23 24 24 25 25 25
10 12 12 18 22 17 27 23 26 30 31 29 27 21 16 19 7 10 15 16 14 13 16 21 26 28 24 20 17 13 11 11 11 12 14 15 17 21 23 24 25 25 26 25
6 3 6 10 21 23 21 14 27 20 32 28 17 18 14 7 7 11 9 10 13 15 19 23 27 28 26 21 17 14 12 11 11 11 14 16 20 22 24 25 26 27 27 26
2 3 7 11 3 13 22 26 23 18 23 23 24 16 13 6 9 11 10 9 9 13 18 23 25 23 21 18 15 13 12 11 10 11 14 17 21 24 25 26 26 26 26 27
5 9 10 15 5 7 9 14 23 25 31 26 22 5 20 8 10 13 9 7 13 23 24 24 24 21 19 15 13 11 12 11 10 11 16 18 21 25 27 26 27 26 26 28
7 6 10 13 3 3 6 10 11 24 27 23 18 6 16 3 3 5 10 16 20 24 25 23 20 17 15 13 11 12 12 10 11 14 16 18 22 25 27 27 24 26 27 28
18 16 6 9 8 2 6 19 8 17 21 19 11 12 4 6 7 11 14 20 21 21 22 20 17 15 13 10 11 10 10 12 13 15 16 18 20 24 28 28 26 26 27 28
11 13 18 8 4 12 14 2 3 2 6 7 4 7 4 6 8 9 10 16 17 18 17 16 15 13 10 11 8 9 12 13 14 15 17 18 20 25 26 26 23 25 25 26
12 8 6 11 13 17 2 4 3 4 4 3 7 6 7 7 8 9 13 14 16 16 16 13 11 10 9 7 8 11 12 14 15 15 17 20 20 22 24 24 22 22 23 24
19 17 18 8 5 3 4 2 3 2 3 2 5 8 7 9 8 8 11 13 15 13 14 14 10 8 6 7 8 10 13 15 16 17 18 18 19 22 23 22 22 21 24 25
10 11 4 11 4 4 6 6 4 4 0 1 5 6 8 8 8 9 11 13 12 9 6 6 6 5 5 7 10 12 14 17 18 18 16 18 24 24 24 25 25 26 25 26
17 1 2 1 3 2 5 4 5 5 3 3 3 7 8 7 10 11 12 12 10 8 6 5 6 8 9 9 10 13 16 18 17 16 20 21 22 25 25 25 27 27 30 33
3 4 3 5 4 3 4 6 6 6 7 8 8 8 9 8 10 10 10 8 5 4 2 4 8 12 11 12 13 14 17 18 19 19 21 20 20 22 22 31 23 28 32 30
6 4 2 2 3 7 10 11 15 15 15 13 11 14 13 10 11 10 10 5 1 3 5 8 11 16 15 14 15 16 17 18 19 20 21 22 23 24 24 18 25 30 30 29
4 4 4 8 9 8 8 9 9 8 7 9 12 11 10 8 7 5 2 2 5 8 11 11 11 15 15 17 17 18 19 21 21 23 25 25 24 21 22 22 23 30 31 31
4 6 6 8 7 7 8 7 9 7 7 6 7 9 8 5 2 4 5 5 6 10 14 17 18 19 18 18 18 19 21 19 21 21 19 23 23 20 21 22 25 26 27 28
5 4 5 5 6 5 6 5 6 5 5 6 6 5 4 3 4 4 5 8 9 13 17 18 20 18 17 17 18 20 20 23 21 22 22 22 22 21 23 25 26 27 29 31
3 5 3 6 7 7 6 6 8 8 4 7 5 3 4 4 3 9 10 10 11 15 15 13 12 14 16 18 19 20 22 23 22 23 24 18 22 24 24 25 28 28 30 30
7 7 7 7 7 7 6 6 7 9 8 5 3 2 3 6 7 9 10 12 14 14 15 14 15 14 20 16 18 17 19 23 23 21 21 24 25 26 26 25 26 29 29 29
5 7 11 9 11 8 8 9 9 7 5 3 1 2 5 6 7 10 10 13 16 16 15 19 20 16 14 20 23 24 23 15 17 22 22 23 24 25 26 28 29 29 29 28
5 6 6 7 8 7 7 8 7 5 4 2 3 5 7 9 8 8 10 8 14 15 15 17 20 17 21 26 24 12 12 20 23 22 22 24 25 25 26 26 27 27 28 29
3 3 5 6 6 5 5 6 6 5 4 4 5 6 6 9 10 9 10 14 13 14 17 19 14 19 23 24 9 19 21 22 24 23 24 24 25 26 27 27 28 28 29 29
6 5 6 6 5 4 5 6 7 7 7 7 7 7 8 10 11 11 5 15 14 16 18 17 22 23 23 17 24 28 28 26 24 25 25 26 28 29 29 30 30 30 30 31
8 7 6 6 6 5 2 6 9 8 9 9 10 10 11 11 11 10 11 13 17 18 20 20 22 22 24 24 28 29 27 26 27 27 29 32 31 31 31 31 32 33 32 32
10 10 9 8 7 9 10 8 7 9 10 11 11 10 10 10 14 16 16 17 18 19 21 21 23 23 22 24 27 28 27 28 29 30 30 30 31 32 32 32 32 33 32 33
11 10 12 15 14 10 10 11 11 9 10 10 9 10 11 11 12 14 17 17 19 20 24 26 24 22 23 27 28 28 29 31 31 33 32 33 33 34 34 35 35 36 35 35
11 12 11 10 12 16 14 11 12 12 10 10 11 9 9 11 12 13 15 18 20 21 21 22 23 24 24 28 28 32 31 32 33 34 35 35 35 36 37 37 37 37 35 35
Wind_Direction
253 261 200 198 183 196 207 220 214 259 222 263 263 237 241 210 222 195 203 201 199 199 200 198 205 208 211 221 217 220 231 256 278 294 299 304 309 312 315 315 311 307 306 304
263 241 235 251 247 196 214 223 235 249 266 254 272 281 278 266 223 206 216 212 204 201 189 191 199 207 207 208 214 219 235 258 280 293 299 304 311 315 316 315 311 309 304 301
257 126 105 271 238 226 229 217 220 234 241 266 265 263 253 225 209 226 217 201 199 196 195 191 196 206 204 206 209 220 237 256 272 294 299 307 312 314 314 311 311 309 306 303
200 116 222 250 222 213 218 231 212 230 250 245 250 259 255 209 200 219 215 205 193 183 182 184 192 193 196 201 213 227 244 263 283 289 301 309 310 311 313 314 309 305 303 302
216 211 278 299 228 159 174 250 222 222 242 247 252 5 282 222 211 218 201 192 179 176 168 170 177 187 190 197 213 230 249 264 280 288 301 306 306 309 312 312 309 304 301 300
200 225 228 244 252 145 96 265 163 204 230 238 242 220 252 77 135 111 105 130 130 147 154 160 170 179 187 202 219 236 253 269 284 295 302 305 307 308 311 311 300 300 299 299
227 240 251 245 168 159 139 262 191 189 216 226 211 215 175 120 82 101 112 118 138 150 153 162 170 178 192 211 232 256 261 270 286 297 303 307 308 309 309 307 302 298 297 300
229 242 250 146 54 185 234 317 164 188 230 221 173 121 112 113 119 123 125 130 141 138 144 156 170 180 198 221 244 254 268 283 295 303 308 307 309 308 308 307 297 297 298 302
193 210 216 189 220 229 159 179 181 157 152 127 130 151 154 141 141 138 142 139 147 147 149 162 179 197 210 229 246 266 282 290 299 306 307 309 306 305 302 298 294 294 300 299
251 237 257 235 244 90 47 45 80 53 96 139 141 146 146 145 144 140 144 138 147 153 159 171 186 198 225 254 261 273 280 292 302 303 308 308 299 296 293 289 290 292 293 291
276 270 288 253 150 144 152 141 128 88 39 135 122 142 150 154 140 127 131 133 143 147 135 119 151 184 227 251 270 283 293 298 301 304 310 304 295 295 292 286 283 283 286 294
268 259 190 58 62 55 133 140 136 132 109 75 95 138 129 121 108 112 119 127 130 136 157 201 237 250 256 268 283 293 294 294 298 298 299 296 290 294 296 289 291 290 294 296
288 58 74 107 64 17 116 113 104 96 102 99 76 106 111 105 106 136 123 122 122 127 199 271 282 282 287 297 295 290 287 293 294 293 294 287 287 289 289 297 290 295 299 296
64 98 105 45 117 66 81 74 88 79 71 72 81 71 82 90 93 95 96 109 188 271 276 284 289 288 294 297 293 288 290 284 279 280 280 278 279 279 280 285 307 305 302 301
68 51 93 109 87 86 93 101 93 89 91 72 69 80 85 84 86 84 64 340 304 298 296 294 287 287 299 298 290 290 292 287 285 286 277 277 279 280 289 295 294 293 299 301
85 81 86 101 107 109 107 97 106 104 98 95 95 82 78 79 49 12 360 347 327 308 299 294 296 297 297 294 292 292 291 283 283 283 283 286 283 280 291 291 291 290 291 291
102 107 114 120 125 100 88 78 101 100 99 99 95 89 77 30 0 29 345 325 318 296 292 295 294 301 298 296 293 291 288 289 285 288 290 285 280 291 289 288 286 286 286 290
50 49 65 137 137 128 107 90 100 108 97 121 114 79 38 23 310 313 326 326 312 304 302 308 310 308 305 304 296 286 281 278 274 279 283 282 294 286 282 284 287 286 287 289
51 73 67 78 101 109 111 110 112 122 126 128 118 48 334 311 311 316 325 317 309 303 316 315 312 305 309 305 294 291 281 277 276 279 291 293 291 287 285 283 284 286 286 286
79 77 91 93 102 111 116 128 136 134 132 129 115 320 317 323 325 317 318 296 298 302 314 313 313 320 314 305 299 291 283 283 299 298 292 289 285 286 286 286 287 287 286 285
106 114 117 115 111 109 124 143 143 156 174 203 275 285 295 307 308 301 295 300 308 317 306 313 321 310 306 305 300 288 314 315 305 293 287 285 284 284 282 282 283 282 283 283
140 134 127 124 127 134 162 170 181 186 210 251 271 285 287 293 305 304 299 291 313 312 313 309 316 316 301 304 319 332 321 308 298 290 286 283 281 282 282 281 280 279 280 280
160 162 163 169 167 171 187 211 217 222 234 245 253 263 261 272 288 295 296 314 306 310 308 316 314 305 302 309 327 326 319 310 299 291 285 283 282 281 279 278 278 277 278 280
180 183 188 188 191 196 229 238 233 236 251 254 259 270 271 273 283 280 298 298 305 303 303 317 309 306 307 325 321 316 307 298 293 289 286 287 283 280 278 277 279 279 276 277
203 200 192 191 201 227 237 229 229 236 246 258 264 266 269 267 259 292 300 306 305 307 307 310 311 309 309 310 308 305 298 296 294 292 290 288 286 283 279 277 274 275 275 274
199 203 215 223 225 229 229 207 218 239 233 239 261 266 264 266 274 279 289 298 302 306 307 311 314 314 309 311 310 304 301 299 297 294 294 290 285 281 278 275 274 273 272 271
222 222 221 221 231 230 224 217 218 234 243 242 253 264 263 263 278 288 298 303 307 309 311 312 312 313 309 309 308 305 303 299 299 299 297 290 285 281 278 275 273 272 271 271